[[{"header":{"parameterUnit":"m.s-1","parameterCategory":1,"la1":30.2991,"la2":30.254,"lo1":-89.0895,"lo2":-89.0444,"dy":0.0017,"dx":0.0017,"nx":28,"ny":28,"refTime":"2026-01-10T09:00:00:Z","depth":0,"parameterNumber":2,"parameterNumberName":"U-component_of_WINDS"},"data":[0,0,0,0,0,0,0,0,0,0,0,0,0,0,0,0,0,0,0,0,0,0,0,0,0,0,0,0,0,0,0,0,0,0,0,0,0,0,0,0,0,0,0,0,0,0,0,0,0,0,0,0,0,0,0,0,0,0,0.6525,0.6525,0,0.6513,0.6513,0.6513,0.6493,0.6493,0.6492,0.6492,0.648,0.648,0.648,0,0,0,0,0,0,0,0,0,0,0,0,0,0.6533,0.6533,0.6525,0.6525,0.6525,0.6513,0.6513,0.6513,0.6493,0.6493,0.6492,0.6492,0.648,0.648,0.648,0,0,0,0,0,0,0,0,0,0,0,0,0,0.6526,0.6533,0.6525,0.6514,0.6512,0.6513,0.6513,0.6513,0.6493,0.6493,0.6492,0.6492,0.648,0.648,0.648,0.6492,0,0,0.6481,0.6481,0,0,0,0,0,0,0,0,0.6526,0.6526,0.6516,0.6514,0.6513,0.6504,0.6511,0.6506,0.6493,0.6501,0.6492,0.6491,0.6489,0.6488,0.6487,0.6491,0.6491,0.6481,0.6481,0.6481,0.6481,0,0,0,0,0,0,0,0.6527,0.6526,0.652,0.6515,0.6514,0.6509,0.6508,0.651,0.6498,0.65,0.6498,0.6497,0.6488,0.6487,0.6487,0.649,0.6481,0.6481,0.6481,0.6481,0.6504,0.6504,0,0,0,0,0,0,0.6529,0.6527,0.6521,0.652,0.6519,0.651,0.6508,0.6507,0.6498,0.6496,0.6498,0.6496,0.6487,0.6487,0.6486,0.6499,0.6481,0.6481,0.6481,0.6503,0.6504,0.6504,0,0,0,0,0,0,0.6529,0.6529,0.6521,0.6523,0.6522,0.651,0.651,0.6508,0.6506,0.6496,0.6494,0.6499,0.6487,0.6486,0.649,0.6498,0.6481,0.6481,0.6502,0.6503,0.6504,0.6524,0,0,0,0,0,0,0.6529,0.6529,0.6533,0.6523,0.6522,0.6526,0.651,0.6508,0.6506,0.6505,0.6497,0.6495,0.6486,0.649,0.6491,0.6498,0.6481,0.6502,0.6503,0.6504,0.6523,0.6526,0.6528,0,0,0,0,0,0.653,0.6539,0.6533,0.6532,0.6526,0.6526,0.6525,0.6515,0.6507,0.6511,0.6505,0.6495,0.6497,0.6491,0.6491,0.6499,0.6501,0.6503,0.6504,0.6522,0.6525,0.6528,0,0,0,0,0,0,0.655,0.6537,0.6531,0.6537,0.6533,0.6523,0.6527,0.6519,0.6517,0.6515,0.6503,0.6501,0.6508,0.6503,0.6497,0.6509,0.6498,0.6499,0.6512,0.6515,0.6517,0.6518,0.6481,0,0,0,0,0,0.6555,0.6555,0.6545,0.6551,0.6549,0.6539,0.6538,0.6531,0.6526,0.6524,0.6518,0.6514,0.6514,0.6514,0.6513,0.6522,0.6521,0.6528,0.653,0.6532,0.6534,0.6539,0.6542,0.6509,0.6509,0.6509,0,0,0.6565,0.6559,0.656,0.6555,0.6551,0.6552,0.6537,0.6539,0.654,0.6525,0.6528,0.6524,0.6519,0.6526,0.6528,0.6522,0.6543,0.6534,0.6536,0.6536,0.6541,0.6544,0.6547,0.651,0.651,0.6509,0,0,0.6585,0.658,0.6585,0.6581,0.6575,0.6568,0.6569,0.6561,0.6557,0.6561,0.6549,0.655,0.655,0.6547,0.6546,0.6565,0.6556,0.6565,0.6579,0.6584,0.6587,0.6589,0.6596,0.6599,0.6567,0.6567,0.6567,0,0.6599,0.66,0.6589,0.6592,0.659,0.6576,0.6581,0.6578,0.6572,0.6572,0.6565,0.6565,0.6561,0.6567,0.6572,0.6571,0.6572,0.6566,0.6587,0.659,0.6591,0.6598,0.6601,0.6568,0.6568,0.6568,0.6567,0,0.6618,0.6619,0.6624,0.6619,0.6618,0.6622,0.6611,0.6612,0.6605,0.6599,0.6603,0.6597,0.6595,0.6596,0.6589,0.6601,0.6598,0.659,0.6578,0.6596,0.6602,0.6605,0.6569,0.6569,0.6569,0.6568,0,0,0.665,0.6638,0.664,0.6638,0.663,0.6631,0.6635,0.6633,0.6634,0.663,0.6634,0.6634,0.6626,0.6625,0.6617,0.6622,0.6638,0.6613,0.6612,0.6618,0.6652,0.6658,0.6662,0.6632,0.6632,0.6633,0.6652,0,0.6669,0.6674,0.6664,0.6672,0.6673,0.666,0.6663,0.6659,0.6654,0.6654,0.6648,0.6649,0.6638,0.6637,0.6641,0.6635,0.6645,0.6634,0.6635,0.6636,0.6637,0.6665,0.6672,0.669,0.6655,0.6655,0.6656,0,0.6691,0.6688,0.6697,0.6689,0.6689,0.6692,0.669,0.669,0.6686,0.6681,0.668,0.6671,0.6675,0.6663,0.6669,0.6661,0.6662,0.6659,0.6659,0.6659,0.6647,0.6666,0.6696,0.6699,0.6659,0.6659,0.6659,0,0.6714,0.6713,0.6717,0.6716,0.6707,0.6709,0.6706,0.6701,0.67,0.6698,0.6698,0.6697,0.6696,0.6695,0.6687,0.6679,0.6693,0.6681,0.669,0.669,0.6694,0.6694,0.6725,0.6694,0.6694,0.6694,0.6693,0,0.6736,0.6741,0.6728,0.6731,0.6737,0.6725,0.6732,0.6727,0.6723,0.6725,0.6713,0.6716,0.6704,0.6705,0.6699,0.6704,0.6704,0.6701,0.6699,0.6702,0.6702,0.6702,0.6701,0.6694,0.6694,0.6694,0.6694,0,0.6762,0.6753,0.6758,0.6749,0.6747,0.6752,0.6745,0.6747,0.6741,0.6744,0.6744,0.6735,0.6736,0.6727,0.6726,0.6722,0.6731,0.6727,0.6732,0.6731,0.6741,0.674,0.6773,0.6777,0.6743,0.6743,0.6744,0,0.6777,0.6781,0.6773,0.6773,0.677,0.6771,0.6771,0.676,0.676,0.6756,0.6759,0.6759,0.6758,0.6761,0.6754,0.6754,0.675,0.6761,0.6749,0.6752,0.675,0.675,0.6751,0.6764,0.6764,0.6764,0.6765,0,0.6804,0.6799,0.6799,0.6797,0.6797,0.6795,0.6793,0.6794,0.6782,0.6783,0.6784,0.6783,0.6783,0.6783,0.6782,0.6778,0.677,0.6768,0.677,0.6774,0.6777,0.6776,0.6739,0.6768,0.6767,0.6767,0.6767,0.6767,0.6825,0.6828,0.6823,0.6823,0.682,0.6818,0.682,0.6815,0.6815,0.6813,0.6807,0.6809,0.6805,0.6802,0.68,0.6802,0.6796,0.6799,0.68,0.6801,0.6803,0.6777,0.6801,0.6801,0.6801,0.6801,0.6801,0,0.6851,0.6848,0.6848,0.6845,0.6845,0.6837,0.6834,0.6835,0.6836,0.6833,0.6833,0.6834,0.6835,0.6828,0.6828,0.6831,0.6827,0.6831,0.6831,0.683,0.6808,0.6806,0.6834,0.6834,0.6834,0.6834,0.6834,0.6834,0.6865,0.687,0.6865,0.6869,0.6865,0.6867,0.6866,0.6864,0.6862,0.6863,0.6864,0.6859,0.6855,0.6855,0.6855,0.6853,0.6853,0.6859,0.6856,0.6835,0.6832,0.6829,0.6827,0.6859,0.6859,0.6878,0.6879,0.6879]},{"header":{"parameterUnit":"m.s-1","parameterCategory":1,"la1":30.2991,"la2":30.254,"lo1":-89.0895,"lo2":-89.0444,"dy":0.0017,"dx":0.0017,"nx":28,"ny":28,"refTime":"2026-01-10T09:00:00:Z","depth":0,"parameterNumber":3,"parameterNumberName":"V-component_of_WINDS"},"data":[0,0,0,0,0,0,0,0,0,0,0,0,0,0,0,0,0,0,0,0,0,0,0,0,0,0,0,0,0,0,0,0,0,0,0,0,0,0,0,0,0,0,0,0,0,0,0,0,0,0,0,0,0,0,0,0,0,0,2.8352,2.8354,0,2.851,2.8512,2.8514,2.8549,2.8548,2.8547,2.8546,2.8712,2.8717,2.8722,0,0,0,0,0,0,0,0,0,0,0,0,0,2.8085,2.809,2.8352,2.8354,2.8356,2.851,2.8512,2.8514,2.855,2.8548,2.8547,2.8546,2.871,2.8716,2.8723,0,0,0,0,0,0,0,0,0,0,0,0,0,2.8218,2.8091,2.8352,2.8392,2.8397,2.8509,2.8512,2.8515,2.855,2.8548,2.8547,2.8545,2.8708,2.8716,2.8724,2.8808,0,0,2.8749,2.8752,0,0,0,0,0,0,0,0,2.821,2.8228,2.8384,2.8389,2.8395,2.8508,2.8479,2.8613,2.855,2.8492,2.8546,2.8544,2.8646,2.8659,2.8692,2.8816,2.8823,2.8749,2.8754,2.8758,2.876,0,0,0,0,0,0,0,2.8201,2.8221,2.8415,2.8386,2.8393,2.8404,2.8421,2.8504,2.8576,2.8497,2.85,2.8518,2.8648,2.8684,2.8696,2.8825,2.8749,2.8756,2.8762,2.8765,2.9028,2.903,0,0,0,0,0,0,2.8184,2.8213,2.841,2.8419,2.8297,2.841,2.8429,2.8474,2.8576,2.8589,2.8519,2.8519,2.8671,2.8687,2.8702,2.881,2.8758,2.8765,2.877,2.9026,2.9029,2.9031,0,0,0,0,0,0,2.8178,2.8201,2.8403,2.8317,2.8344,2.8416,2.8466,2.8478,2.8514,2.8592,2.8606,2.8542,2.867,2.8691,2.8782,2.8816,2.8769,2.8777,2.9024,2.9027,2.903,2.9024,0,0,0,0,0,0,2.8171,2.8199,2.8231,2.8318,2.8348,2.8479,2.8468,2.8482,2.8527,2.8529,2.8618,2.8631,2.8671,2.8769,2.879,2.8826,2.8783,2.9021,2.9025,2.9029,2.9021,2.9026,2.9031,0,0,0,0,0,2.8161,2.8223,2.8232,2.8256,2.8389,2.848,2.8498,2.8542,2.853,2.8563,2.8614,2.8628,2.8808,2.8778,2.8802,2.8841,2.9019,2.9024,2.9029,2.9019,2.9025,2.903,0,0,0,0,0,0,2.8139,2.8235,2.8246,2.8338,2.8401,2.8486,2.853,2.8546,2.8615,2.8613,2.8665,2.8685,2.8773,2.8816,2.8781,2.8929,2.8914,2.8923,2.8898,2.8905,2.8909,2.8898,2.879,0,0,0,0,0,2.8145,2.821,2.829,2.8364,2.8394,2.8456,2.8498,2.8526,2.8594,2.8621,2.8678,2.8744,2.8816,2.8862,2.8933,2.9027,2.9048,2.9066,2.907,2.9074,2.9082,2.9138,2.9148,2.9047,2.9047,2.9046,0,0,2.8157,2.8218,2.8256,2.8361,2.8413,2.8481,2.8479,2.855,2.8602,2.8632,2.8722,2.8766,2.8844,2.8937,2.8981,2.8976,2.9115,2.908,2.9082,2.9089,2.9144,2.9154,2.9162,2.905,2.9049,2.9049,0,0,2.8216,2.8267,2.8335,2.8387,2.8465,2.8506,2.8522,2.8606,2.8636,2.8727,2.8752,2.8814,2.8936,2.8991,2.9035,2.9115,2.9132,2.9137,2.9162,2.9216,2.9224,2.9231,2.9263,2.9273,2.9144,2.9144,2.9144,0,2.8222,2.8325,2.8368,2.8439,2.8485,2.8514,2.8585,2.8633,2.8731,2.8763,2.8755,2.891,2.8964,2.9072,2.9092,2.9125,2.9148,2.9128,2.9219,2.9227,2.9234,2.9265,2.9276,2.9145,2.9145,2.9144,2.9144,0,2.833,2.8401,2.8446,2.8539,2.8591,2.8661,2.8716,2.8763,2.8787,2.8829,2.8922,2.8988,2.9073,2.91,2.9124,2.9213,2.9207,2.9208,2.9194,2.9243,2.9273,2.9285,2.9145,2.9145,2.9145,2.9145,0,0,2.838,2.8496,2.8513,2.8556,2.8645,2.8702,2.8774,2.8856,2.8897,2.8963,2.9027,2.913,2.9132,2.9181,2.9212,2.9258,2.9321,2.9254,2.9257,2.9267,2.9426,2.9427,2.944,2.9332,2.9334,2.9336,2.9421,0,2.8452,2.8581,2.8622,2.8731,2.8798,2.8827,2.889,2.8953,2.8994,2.9059,2.9105,2.9178,2.9173,2.9204,2.9251,2.9303,2.9355,2.9298,2.9394,2.9397,2.9377,2.9455,2.9456,2.9533,2.9433,2.9434,2.9436,0,2.8552,2.862,2.8735,2.8817,2.8847,2.8903,2.8983,2.9043,2.9116,2.9143,2.9199,2.9226,2.9304,2.9284,2.9395,2.9355,2.9397,2.9428,2.9433,2.9446,2.9421,2.9473,2.9558,2.957,2.9454,2.9453,2.9451,0,2.8581,2.8701,2.8786,2.8822,2.8919,2.8958,2.9001,2.9071,2.9119,2.9189,2.9221,2.9299,2.9343,2.9404,2.9452,2.9432,2.956,2.9542,2.9587,2.9586,2.9615,2.9613,2.9711,2.9637,2.9637,2.9637,2.9636,0,2.8658,2.8728,2.88,2.8853,2.8933,2.898,2.9058,2.9103,2.9165,2.9228,2.9258,2.9317,2.9375,2.9443,2.9481,2.9569,2.9587,2.9613,2.9623,2.9613,2.961,2.9643,2.964,2.964,2.9639,2.9638,2.9638,0,2.8704,2.8755,2.885,2.8934,2.8957,2.9013,2.9086,2.9139,2.9181,2.9261,2.9283,2.935,2.9431,2.9484,2.9588,2.9614,2.971,2.9717,2.9686,2.9691,2.9734,2.973,2.9859,2.9879,2.9789,2.9789,2.979,0,2.8751,2.8806,2.8896,2.894,2.8983,2.9053,2.9101,2.915,2.92,2.9287,2.9331,2.9413,2.9482,2.961,2.967,2.975,2.9761,2.98,2.9773,2.9762,2.9765,2.9763,2.977,2.9806,2.9806,2.9807,2.9807,0,2.883,2.8853,2.8921,2.8999,2.9057,2.912,2.9184,2.9219,2.9279,2.9334,2.9417,2.947,2.9576,2.9659,2.9744,2.979,2.981,2.9815,2.983,2.9821,2.9802,2.9816,2.9701,2.9813,2.9812,2.9812,2.9811,2.9811,2.8881,2.8932,2.9003,2.9079,2.9132,2.9192,2.9247,2.9296,2.9365,2.9455,2.9479,2.9566,2.9639,2.9756,2.9803,2.9874,2.987,2.9891,2.9897,2.9902,2.9904,2.9788,2.9889,2.9889,2.9889,2.9889,2.9889,0,2.8964,2.9012,2.9081,2.9169,2.923,2.9241,2.9313,2.9363,2.9439,2.9504,2.9572,2.9668,2.9749,2.9814,2.9898,2.9942,2.9953,2.9963,2.9961,2.9972,2.9901,2.9881,2.9952,2.9952,2.9952,2.9952,2.9952,2.9952,2.9014,2.9102,2.9133,2.9248,2.9295,2.938,2.9421,2.9477,2.9529,2.9635,2.9702,2.9744,2.9811,2.99,2.9975,2.9992,3.0023,3.0031,3.0051,2.9984,2.9977,2.997,2.9952,3.0037,3.0037,3.0117,3.0117,3.0118]}]]